When you browse on this site, cookies collect data to enhance your experience and personalize the content and advertising you see.
Visit our Privacy Policy to learn more. By continuing to use the site, you agree to this use of cookies and data.
  • In United Kingdom
  • List of Countries
  • For 7 days
  • Water Temperature
  • Weather Map
  • Weather Widgets
  • user-avatar
    Login

    Hourly Weather Nahf

    Today, 15 September, Sunday

    Time Temperature Precipitation Wind Pressure Humidity
    00:00 +22°C° 0 mm 1 mps 734 mmHg 86%
    01:00 +22°C° 0 mm 1 mps 734 mmHg 86%
    02:00 +22°C° 0 mm 1 mps 734 mmHg 87%
    03:00 +22°C° 0 mm 1 mps 734 mmHg 87%
    04:00 +21°C° 0 mm 1 mps 734 mmHg 87%
    05:00 +21°C° 0 mm 1 mps 734 mmHg 87%
    06:00 +23°C° 0 mm 1 mps 734 mmHg 78%
    07:00 +25°C° 0 mm 2 mps 734 mmHg 68%
    08:00 +27°C° 0 mm 2 mps 735 mmHg 58%
    09:00 +28°C° 0 mm 3 mps 735 mmHg 55%
    10:00 +29°C° 0 mm 4 mps 735 mmHg 51%
    11:00 +30°C° 0 mm 5 mps 735 mmHg 47%
    12:00 +30°C° 0 mm 5 mps 735 mmHg 47%
    13:00 +32°C° 0 mm 6 mps 735 mmHg 47%
    14:00 +32°C° 0 mm 5 mps 735 mmHg 48%
    15:00 +30°C° 0 mm 5 mps 735 mmHg 53%
    16:00 +28°C° 0 mm 4 mps 734 mmHg 58%
    17:00 +27°C° 0 mm 4 mps 734 mmHg 62%
    18:00 +26°C° 0 mm 3 mps 735 mmHg 69%
    19:00 +24°C° 0 mm 2 mps 735 mmHg 76%
    20:00 +23°C° 0 mm 1 mps 735 mmHg 83%
    21:00 +23°C° 0 mm 1 mps 735 mmHg 84%
    22:00 +22°C° 0 mm 1 mps 735 mmHg 84%
    23:00 +22°C° 0 mm 1 mps 734 mmHg 85%

    Tomorrow, 16 September, Monday

    Time Temperature Precipitation Wind Pressure Humidity
    00:00 +22°C° 0 mm 1 mps 734 mmHg 86%
    01:00 +22°C° 0 mm 1 mps 734 mmHg 87%
    02:00 +21°C° 0 mm 1 mps 735 mmHg 87%
    03:00 +22°C° 0 mm 1 mps 735 mmHg 86%
    04:00 +22°C° 0 mm 1 mps 735 mmHg 85%
    05:00 +22°C° 0 mm 1 mps 735 mmHg 84%
    06:00 +24°C° 0 mm 1 mps 735 mmHg 77%
    07:00 +25°C° 0 mm 2 mps 736 mmHg 71%
    08:00 +27°C° 0 mm 2 mps 736 mmHg 65%
    09:00 +28°C° 0 mm 3 mps 736 mmHg 60%
    10:00 +29°C° 0 mm 3 mps 736 mmHg 55%
    11:00 +30°C° 0 mm 4 mps 736 mmHg 51%
    12:00 +32°C° 0 mm 4 mps 736 mmHg 49%
    13:00 +32°C° 0 mm 4 mps 736 mmHg 47%
    14:00 +32°C° 0 mm 5 mps 736 mmHg 45%
    15:00 +30°C° 0 mm 4 mps 736 mmHg 49%
    16:00 +29°C° 0 mm 4 mps 736 mmHg 53%
    17:00 +28°C° 0 mm 4 mps 736 mmHg 57%
    18:00 +26°C° 0 mm 3 mps 736 mmHg 64%
    19:00 +25°C° 0 mm 3 mps 736 mmHg 71%
    20:00 +23°C° 0 mm 2 mps 736 mmHg 78%
    21:00 +23°C° 0 mm 2 mps 736 mmHg 79%
    22:00 +23°C° 0 mm 2 mps 736 mmHg 80%
    23:00 +22°C° 0 mm 1 mps 736 mmHg 81%

    Day after tomorrow, 17 September, Tuesday

    Time Temperature Precipitation Wind Pressure Humidity
    00:00 +22°C° 0 mm 1 mps 736 mmHg 82%
    01:00 +22°C° 0 mm 1 mps 736 mmHg 83%
    02:00 +22°C° 0 mm 1 mps 736 mmHg 83%
    03:00 +21°C° 0 mm 1 mps 736 mmHg 84%
    04:00 +21°C° 0 mm 1 mps 736 mmHg 84%
    05:00 +21°C° 0 mm 1 mps 736 mmHg 85%
    06:00 +23°C° 0 mm 1 mps 737 mmHg 76%
    07:00 +25°C° 0 mm 1 mps 737 mmHg 67%
    08:00 +25°C° 0 mm 0 mps 738 mmHg 59%
    09:00 +29°C° 0 mm 1 mps 738 mmHg 52%
    10:00 +31°C° 0 mm 2 mps 738 mmHg 45%
    11:00 +34°C° 0 mm 3 mps 738 mmHg 38%
    12:00 +33°C° 0 mm 4 mps 737 mmHg 38%
    13:00 +33°C° 0 mm 5 mps 737 mmHg 38%
    14:00 +33°C° 0 mm 6 mps 736 mmHg 38%
    15:00 +32°C° 0 mm 6 mps 736 mmHg 43%
    16:00 +30°C° 0 mm 5 mps 736 mmHg 47%
    17:00 +28°C° 0 mm 5 mps 736 mmHg 52%
    18:00 +27°C° 0 mm 4 mps 736 mmHg 60%
    19:00 +25°C° 0 mm 4 mps 737 mmHg 67%
    20:00 +22°C° 0 mm 3 mps 737 mmHg 75%
    21:00 +22°C° 0 mm 3 mps 737 mmHg 75%
    22:00 +22°C° 0 mm 3 mps 737 mmHg 76%
    23:00 +21°C° 0 mm 2 mps 737 mmHg 77%

    18 September, Wednesday

    Time Temperature Precipitation Wind Pressure Humidity
    00:00 +21°C° 0 mm 2 mps 736 mmHg 77%
    01:00 +21°C° 0 mm 2 mps 736 mmHg 77%
    02:00 +21°C° 0 mm 2 mps 736 mmHg 78%
    03:00 +20°C° 0 mm 2 mps 736 mmHg 78%
    04:00 +21°C° 0 mm 1 mps 736 mmHg 77%
    05:00 +21°C° 0 mm 1 mps 737 mmHg 77%
    06:00 +23°C° 0 mm 1 mps 737 mmHg 65%
    07:00 +26°C° 0 mm 1 mps 738 mmHg 53%
    08:00 +29°C° 0 mm 1 mps 738 mmHg 41%
    09:00 +31°C° 0 mm 1 mps 738 mmHg 35%
    10:00 +34°C° 0 mm 2 mps 738 mmHg 30%
    11:00 +36°C° 0 mm 2 mps 738 mmHg 24%
    12:00 +36°C° 0 mm 3 mps 737 mmHg 27%
    13:00 +36°C° 0 mm 4 mps 737 mmHg 29%
    14:00 +36°C° 0 mm 5 mps 736 mmHg 32%
    15:00 +35°C° 0 mm 5 mps 736 mmHg 36%
    16:00 +33°C° 0 mm 5 mps 736 mmHg 39%
    17:00 +32°C° 0 mm 5 mps 736 mmHg 43%
    18:00 +29°C° 0 mm 5 mps 736 mmHg 48%
    19:00 +27°C° 0 mm 4 mps 736 mmHg 52%
    20:00 +26°C° 0 mm 3 mps 736 mmHg 56%
    21:00 +25°C° 0 mm 3 mps 736 mmHg 58%
    22:00 +25°C° 0 mm 2 mps 736 mmHg 60%
    23:00 +24°C° 0 mm 2 mps 736 mmHg 61%

    19 September, Thursday

    Time Temperature Precipitation Wind Pressure Humidity
    00:00 +24°C° 0 mm 2 mps 736 mmHg 64%
    01:00 +23°C° 0 mm 2 mps 736 mmHg 68%
    02:00 +23°C° 0 mm 1 mps 736 mmHg 71%
    03:00 +23°C° 0 mm 1 mps 736 mmHg 73%
    04:00 +22°C° 0 mm 1 mps 736 mmHg 74%
    05:00 +22°C° 0 mm 1 mps 736 mmHg 76%
    06:00 +24°C° 0 mm 1 mps 736 mmHg 68%
    07:00 +27°C° 0 mm 1 mps 736 mmHg 60%
    08:00 +29°C° 0 mm 2 mps 737 mmHg 51%
    09:00 +30°C° 0 mm 2 mps 737 mmHg 47%
    10:00 +33°C° 0 mm 3 mps 737 mmHg 42%
    11:00 +35°C° 0 mm 3 mps 737 mmHg 38%
    12:00 +35°C° 0 mm 4 mps 737 mmHg 39%
    13:00 +35°C° 0 mm 5 mps 736 mmHg 40%
    14:00 +35°C° 0 mm 6 mps 736 mmHg 41%
    15:00 +33°C° 0 mm 5 mps 736 mmHg 46%
    16:00 +32°C° 0 mm 5 mps 736 mmHg 51%
    17:00 +29°C° 0 mm 5 mps 735 mmHg 56%
    18:00 +27°C° 0 mm 4 mps 736 mmHg 64%
    19:00 +26°C° 0 mm 3 mps 736 mmHg 72%
    20:00 +24°C° 0 mm 2 mps 736 mmHg 80%
    21:00 +24°C° 0 mm 2 mps 736 mmHg 82%
    22:00 +23°C° 0 mm 2 mps 736 mmHg 84%
    23:00 +23°C° 0 mm 2 mps 735 mmHg 86%

    20 September, Friday

    Time Temperature Precipitation Wind Pressure Humidity
    00:00 +23°C° 0 mm 2 mps 735 mmHg 86%
    01:00 +23°C° 0 mm 2 mps 735 mmHg 87%
    02:00 +21°C° 0 mm 2 mps 735 mmHg 87%
    03:00 +22°C° 0 mm 1 mps 735 mmHg 88%
    04:00 +21°C° 0 mm 1 mps 735 mmHg 88%
    05:00 +19°C° 0 mm 0 mps 735 mmHg 88%
    06:00 +23°C° 0 mm 1 mps 735 mmHg 78%
    07:00 +25°C° 0 mm 1 mps 735 mmHg 67%
    08:00 +27°C° 0 mm 1 mps 736 mmHg 57%
    09:00 +28°C° 0 mm 2 mps 736 mmHg 50%
    10:00 +30°C° 0 mm 3 mps 736 mmHg 42%
    11:00 +33°C° 0 mm 3 mps 736 mmHg 35%
    12:00 +33°C° 0 mm 4 mps 735 mmHg 35%
    13:00 +32°C° 0 mm 5 mps 735 mmHg 36%
    14:00 +32°C° 0 mm 6 mps 734 mmHg 37%
    15:00 +30°C° 0 mm 5 mps 734 mmHg 41%
    16:00 +28°C° 0 mm 5 mps 734 mmHg 45%
    17:00 +27°C° 0 mm 4 mps 734 mmHg 49%
    18:00 +25°C° 0 mm 3 mps 734 mmHg 56%
    19:00 +24°C° 0 mm 3 mps 735 mmHg 64%
    20:00 +21°C° 0 mm 2 mps 735 mmHg 71%
    21:00 +21°C° 0 mm 2 mps 735 mmHg 73%
    22:00 +21°C° 0 mm 1 mps 735 mmHg 75%
    23:00 +21°C° 0 mm 1 mps 735 mmHg 77%
    Show more